Starlink 32036

operational
NORAD ID: 60141 Int'l Des: 2024-120 Owner: SPXS Country: US Constellation: starlink
LEOCIRCULAR

About Starlink 32036

Description loading...

Live Position

Loading 3D Globe...

Upcoming Passes

Altitude History

Altitude vs Time

uPlot chart will show altitude changes over time

Two-Line Element Set

1 60141U 24120G 25258.71686876 -.00001409 00000-0 -35446-4 0 9994
2 60141 53.1611 52.8995 0000732 41.8114 318.2942 15.30210791 69665
Epoch: Sep 15, 2025 • Age: 16 hours

Current Status

Altitude 475.9 km
Velocity 7.63 km/s
Sub-Earth Point 5.13°N, 85.76°E
Launch Date Jun 27, 2024
Age 1.2 years
Type internet

Technical Details

Classification Payload
Mass 730.00 kg
Dry Mass 700.00 kg
Total Mass 730.00 kg
Length 0.30 m
Diameter 4.10 m
Span 29.00 m
Shape Box + pan
Manufacturer SPXS
Bus Type Starlink V2M
Phase Status In Orbit
Owner/State SPXS/US

Large Constellations

Loading constellations...